ATLAS 5 CENTAUR R/B, 41623

Orbit data source: Space-Track

ATLAS 5 CENTAUR R/B, 41623 is space debris in HEO originally from a launch on Fri, 24 Jun 2016 UTC launched from the Air Force Eastern Test Range (AFETR). Debris objects in space refer to the collection of defunct objects orbiting the Earth. Examples of debris include non-operational satellites, rocket bodies, and fragments generated from explosions, collisions, or faulty payload assembly.

Loading next visibility...
Identifier
41623, 2016-041B
Orbit
HEO
Country
Flag of USUS
Related business
Manufacturer
LMSS Denver
Mission
Spacecraft
Bus & Motor
CENTAUR SEC, RL10C-1
Mass
~2,020 kg wet, 2,020 kg dry
Launch date (UTC)
2016-06-24 (9 years ago)
Launch vehicle
Unknown
Launch site
Air Force Eastern Test Range (AFETR)
Object type
Payload
Rocket body
Debris
Shape & HBR
Cyl + 1 Nozzle, 5.8 m
Radar Cross Section
32.260 m², Large (>1 m²)

Expand to show TLE details & history
Last TLE update: 3 days ago

TLE from 3 days ago
0 ATLAS 5 CENTAUR R/B
1 41623U 16041B   25258.48405477 -.00000276  00000-0  00000-0 0  9995
2 41623  19.1041  58.9008 6089450 237.3044  49.5552  2.09538398 70643
Epoch: 2025-09-15T11:37Z
TLE epoch observation values (Epoch: 2025-09-15T11:37:02.332Z)
Latitude
-0.00006°
Longitude
-110.04218°
Altitude
17,794.653 km
Speed
4.187 km/s
True Right ascension
03h 55m 37s
True Declination
0° 00' 00"
Sunlit
Object was in daylight at epoch
Visualization orbit readout
Latitude
Unknown
Longitude
Unknown
Altitude
Unknown
Speed
Unknown
Apparent Right ascension
Unknown
Apparent Declination
Unknown
Sunlit
N/A
Visualization observer readout
Local Sidereal Time
08:22:16
Azimuth
Unknown
Elevation
Unknown
Doppler factor
Unknown
Orbital elements
Apogee altitude
35,131.528 km
Perigee altitude
3,710.811 km
Semi-major axis
25,799.307 km
Eccentricity
0.60895
Inclination
19.1041°
RAAN
58.9008°
Arg. of periapsis
237.3044°
True anomaly
122.82476°
Mean anomaly
49.5552°
Eccentric anomaly
84.2709°
Mean motion
0.52376 °/min
Orbital period
687.34 mins
BSTAR
0
Loading maneuver chart data...
Computing Atmospheric mass density...
Loading historical data...
Loading historical data...
Loading historical data...
Loading historical data...
Loading historical data...
Loading historical data...
Loading historical data...
Other satellites on launch #41 in the year 2016 (2016-06-24 UTC)

Documentation

Showing up to 5 results
|